Time+07,TemperatureF,Dew PointF,Humidity,Sea Level PressureIn,VisibilityMPH,Wind Direction,Wind SpeedMPH,Gust SpeedMPH,PrecipitationIn,Events,Conditions,WindDirDegrees,DateUTC
12:30 AM,80.6,77.0,89,29.71,5.6,Calm,Calm,-,N/A,,Unknown,0,2013-05-20 17:30:00
1:00 AM,80.6,77.0,89,29.71,5.6,Calm,Calm,-,N/A,,Unknown,0,2013-05-20 18:00:00
7:00 AM,82.4,78.8,89,29.74,5.6,Calm,Calm,-,N/A,,Scattered Clouds,0,2013-05-21 00:00:00
7:30 AM,84.2,77.0,79,29.74,5.6,Calm,Calm,-,N/A,,Scattered Clouds,0,2013-05-21 00:30:00
8:00 AM,86.0,77.0,74,29.77,5.6,Calm,Calm,-,N/A,,Scattered Clouds,0,2013-05-21 01:00:00
8:30 AM,87.8,75.2,66,29.77,6.2,SW,6.9,-,N/A,,Scattered Clouds,230,2013-05-21 01:30:00
9:00 AM,87.8,75.2,66,29.77,6.2,SW,9.2,-,N/A,,Scattered Clouds,220,2013-05-21 02:00:00
9:30 AM,87.8,75.2,66,29.77,6.2,SW,9.2,-,N/A,,Scattered Clouds,230,2013-05-21 02:30:00
10:00 AM,89.6,75.2,62,29.77,6.2,WSW,9.2,-,N/A,,Scattered Clouds,240,2013-05-21 03:00:00
10:30 AM,91.4,75.2,59,29.74,6.2,WSW,9.2,-,N/A,,Scattered Clouds,240,2013-05-21 03:30:00
11:00 AM,91.4,75.2,59,29.74,6.2,South,6.9,-,N/A,,Scattered Clouds,190,2013-05-21 04:00:00
11:30 AM,93.2,75.2,56,29.71,6.2,SW,5.8,-,N/A,,Scattered Clouds,220,2013-05-21 04:30:00
12:00 PM,95.0,73.4,49,29.71,6.2,SSW,5.8,-,N/A,,Scattered Clouds,200,2013-05-21 05:00:00
12:30 PM,96.8,71.6,44,29.71,6.2,SW,12.7,-,N/A,,Scattered Clouds,230,2013-05-21 05:30:00
1:00 PM,96.8,69.8,41,29.68,6.2,WSW,12.7,-,N/A,,Scattered Clouds,240,2013-05-21 06:00:00
1:30 PM,96.8,69.8,41,29.65,6.2,WSW,12.7,-,N/A,,Scattered Clouds,240,2013-05-21 06:30:00
2:00 PM,96.8,69.8,41,29.65,6.2,SW,11.5,-,N/A,,Partly Cloudy,230,2013-05-21 07:00:00
2:30 PM,96.8,69.8,41,29.62,6.2,WSW,12.7,-,N/A,,Partly Cloudy,240,2013-05-21 07:30:00
3:00 PM,95.0,71.6,47,29.62,6.2,SW,15.0,-,N/A,,Partly Cloudy,230,2013-05-21 08:00:00
3:30 PM,96.8,68.0,39,29.62,6.2,WSW,12.7,-,N/A,,Partly Cloudy,250,2013-05-21 08:30:00
4:00 PM,96.8,68.0,39,29.59,6.2,SW,11.5,-,N/A,,Partly Cloudy,230,2013-05-21 09:00:00
4:30 PM,95.0,69.8,44,29.59,6.2,WSW,12.7,-,N/A,,Partly Cloudy,240,2013-05-21 09:30:00
5:00 PM,95.0,68.0,41,29.62,6.2,WSW,13.8,-,N/A,,Partly Cloudy,240,2013-05-21 10:00:00
5:30 PM,93.2,69.8,46,29.62,6.2,WSW,13.8,-,N/A,,Partly Cloudy,240,2013-05-21 10:30:00
6:00 PM,91.4,69.8,49,29.62,6.2,WSW,12.7,-,N/A,,Partly Cloudy,250,2013-05-21 11:00:00
6:30 PM,89.6,71.6,55,29.65,6.2,WSW,10.4,-,N/A,,Partly Cloudy,240,2013-05-21 11:30:00
7:00 PM,89.6,71.6,55,29.65,6.2,WSW,10.4,-,N/A,,Partly Cloudy,250,2013-05-21 12:00:00
7:30 PM,87.8,71.6,58,29.65,6.2,WSW,9.2,-,N/A,,Partly Cloudy,250,2013-05-21 12:30:00
8:00 PM,86.0,71.6,62,29.68,6.2,WSW,10.4,-,N/A,,Scattered Clouds,240,2013-05-21 13:00:00
8:30 PM,86.0,73.4,66,29.71,6.2,WSW,10.4,-,N/A,,Scattered Clouds,250,2013-05-21 13:30:00
9:00 PM,84.2,73.4,70,29.71,6.2,WSW,8.1,-,N/A,,Scattered Clouds,250,2013-05-21 14:00:00
9:30 PM,84.2,73.4,70,29.74,6.2,WSW,8.1,-,N/A,,Scattered Clouds,250,2013-05-21 14:30:00
10:00 PM,84.2,73.4,70,29.74,6.2,SW,6.9,-,N/A,,Scattered Clouds,230,2013-05-21 15:00:00
10:30 PM,84.2,73.4,70,29.74,6.2,SW,4.6,-,N/A,,Scattered Clouds,220,2013-05-21 15:30:00
11:00 PM,84.2,75.2,74,29.74,6.2,SSW,4.6,-,N/A,,Scattered Clouds,210,2013-05-21 16:00:00
11:30 PM,82.4,75.2,79,29.74,6.2,South,3.5,-,N/A,,Scattered Clouds,190,2013-05-21 16:30:00